User: anonymous   Login
Location: Unspecified
(0.0000°N, 0.0000°E)
Time: 21:40:06
(UTC+00:00)
Language:

NNS O-29 - Orbit

View from above orbital plane
View from above orbital plane
View from above satellite
View from above satellite

Ground track
Ground track

The orbit data is extracted from the following two-line orbital elements,

1 18362U 87080B   18056.36002183  .00000050  00000-0  67902-4 0  9999
2 18362  90.3323 344.0610 0108003 112.5911  34.9983 13.44039118492849
Epoch (UTC): 25 February 2018 08:38:25
Eccentricity: 0.0108003
inclination: 90.3323°
perigee height: 1013 km
apogee height: 1175 km
right ascension of ascending node: 344.0610°
argument of perigee: 112.5911°
revolutions per day: 13.44039118
mean anomaly at epoch: 34.9983°
orbit number at epoch: 49284

The dashed part of the orbit path shows where the satellite is in the earth's shadow,  

DLR